[[{"header":{"parameterUnit":"m.s-1","parameterCategory":1,"la1":30.2991,"la2":30.254,"lo1":-89.0895,"lo2":-89.0444,"dy":0.0017,"dx":0.0017,"nx":28,"ny":28,"refTime":"2024-09-01T03:00:00:Z","depth":0,"parameterNumber":2,"parameterNumberName":"U-component_of_WINDS"},"data":[0,0,0,0,0,0,0,0,0,0,0,0,0,0,0,0,0,0,0,0,0,0,0,0,0,0,0,0,0,0,0,0,0,0,0,0,0,0,0,0,0,0,0,0,0,0,0,0,0,0,0,0,0,0,0,0,0,0,0.5247,0.5249,0,0.5357,0.5358,0.5359,0.5433,0.5433,0.5434,0.5434,0.5545,0.5547,0.555,0,0,0,0,0,0,0,0,0,0,0,0,0,0.5102,0.5104,0.5247,0.5249,0.525,0.5356,0.5358,0.5359,0.5433,0.5433,0.5434,0.5434,0.5544,0.5547,0.555,0,0,0,0,0,0,0,0,0,0,0,0,0,0.5183,0.5105,0.5247,0.5299,0.5305,0.5356,0.5358,0.536,0.5432,0.5433,0.5434,0.5435,0.5543,0.5547,0.555,0.5558,0,0,0.5562,0.5563,0,0,0,0,0,0,0,0,0.5178,0.5188,0.529,0.5296,0.5302,0.5382,0.5347,0.5426,0.5432,0.5384,0.5434,0.5435,0.549,0.5498,0.5517,0.5563,0.5568,0.5562,0.5564,0.5566,0.5567,0,0,0,0,0,0,0,0.5173,0.5184,0.5291,0.5292,0.5299,0.5317,0.533,0.5363,0.5431,0.5388,0.5394,0.5406,0.5493,0.5513,0.552,0.5569,0.5562,0.5565,0.5568,0.5569,0.5627,0.5626,0,0,0,0,0,0,0.5159,0.5179,0.5287,0.5294,0.5241,0.5319,0.5333,0.5356,0.5431,0.5443,0.5405,0.5409,0.5506,0.5516,0.5524,0.5538,0.5566,0.5569,0.5572,0.5628,0.5627,0.5626,0,0,0,0,0,0,0.5156,0.5168,0.5283,0.5238,0.5254,0.5321,0.5345,0.5357,0.5377,0.5444,0.5456,0.5413,0.5507,0.5519,0.5549,0.5542,0.5571,0.5574,0.5628,0.5627,0.5626,0.5564,0,0,0,0,0,0,0.5151,0.5166,0.517,0.5238,0.5256,0.5305,0.5345,0.5359,0.5383,0.5389,0.5454,0.5466,0.5509,0.5543,0.5553,0.5548,0.5577,0.5629,0.5628,0.5627,0.5567,0.5561,0.5556,0,0,0,0,0,0.5146,0.5147,0.5169,0.5182,0.5262,0.5305,0.5316,0.5365,0.5382,0.5386,0.543,0.5464,0.5542,0.5545,0.5557,0.5553,0.563,0.5628,0.5627,0.5569,0.5562,0.5556,0,0,0,0,0,0,0.5076,0.5157,0.5182,0.5206,0.5248,0.5317,0.5324,0.5356,0.5394,0.5398,0.5458,0.5472,0.5496,0.5528,0.553,0.5564,0.559,0.5591,0.5542,0.5536,0.5531,0.5522,0.558,0,0,0,0,0,0.5064,0.5092,0.5162,0.5176,0.5196,0.5256,0.5277,0.5312,0.5357,0.5375,0.542,0.5463,0.5498,0.5519,0.5554,0.5572,0.5587,0.5576,0.557,0.5565,0.5565,0.5577,0.5572,0.5621,0.5621,0.5621,0,0,0.5038,0.5086,0.51,0.5163,0.52,0.5228,0.527,0.5298,0.5319,0.5379,0.541,0.5445,0.5497,0.5521,0.5534,0.5548,0.5555,0.5563,0.5559,0.5561,0.5575,0.557,0.5566,0.562,0.562,0.562,0,0,0.5006,0.5045,0.5061,0.5097,0.5153,0.5193,0.5196,0.5261,0.5286,0.5319,0.5364,0.5391,0.5448,0.5483,0.5509,0.5491,0.5523,0.55,0.5471,0.5482,0.5478,0.5475,0.5468,0.5465,0.55,0.55,0.55,0,0.4967,0.5011,0.5065,0.5091,0.5117,0.5174,0.519,0.5223,0.5286,0.5303,0.5318,0.5392,0.5431,0.5464,0.546,0.5479,0.5485,0.5493,0.5474,0.5472,0.547,0.5464,0.5461,0.5497,0.5497,0.5497,0.5498,0,0.496,0.499,0.4997,0.5057,0.5084,0.5105,0.5163,0.5184,0.5217,0.5255,0.5287,0.5336,0.5382,0.5393,0.5425,0.543,0.5438,0.5463,0.549,0.5461,0.5456,0.5454,0.5492,0.5493,0.5494,0.5495,0,0,0.4886,0.4977,0.4978,0.5007,0.5072,0.5096,0.512,0.5165,0.5182,0.5224,0.5245,0.5293,0.5317,0.5346,0.5383,0.5392,0.5374,0.5417,0.5419,0.5407,0.5383,0.5363,0.5359,0.5397,0.5397,0.5397,0.5379,0,0.4863,0.4908,0.4958,0.4986,0.5014,0.5069,0.5089,0.5131,0.5168,0.5198,0.5239,0.5271,0.5301,0.5319,0.5331,0.5374,0.537,0.5376,0.5417,0.5417,0.5401,0.5357,0.5336,0.5316,0.5377,0.5377,0.5377,0,0.4841,0.4881,0.4912,0.4975,0.4989,0.5006,0.5052,0.508,0.5129,0.5155,0.5187,0.5227,0.5255,0.5279,0.5317,0.532,0.534,0.5364,0.5364,0.5369,0.5394,0.536,0.5311,0.5308,0.5375,0.5375,0.5375,0,0.4783,0.4845,0.4871,0.4894,0.4968,0.4979,0.5011,0.5061,0.5085,0.5125,0.5142,0.5185,0.5208,0.524,0.529,0.5303,0.5323,0.5352,0.5345,0.5344,0.5346,0.5345,0.5299,0.536,0.536,0.536,0.536,0,0.4751,0.4768,0.4846,0.4862,0.4882,0.494,0.4958,0.4994,0.5039,0.5062,0.5113,0.5134,0.5199,0.5229,0.5268,0.5294,0.5304,0.5326,0.5336,0.5321,0.5318,0.5334,0.5336,0.5359,0.536,0.536,0.536,0,0.4689,0.4742,0.4774,0.4843,0.486,0.4872,0.4931,0.4948,0.4988,0.5018,0.5028,0.5091,0.5128,0.5182,0.5235,0.5262,0.5281,0.5298,0.5264,0.527,0.526,0.526,0.5222,0.522,0.5283,0.5282,0.5281,0,0.4665,0.4679,0.4749,0.4769,0.4799,0.483,0.4855,0.4913,0.4937,0.4995,0.5005,0.5046,0.5082,0.5139,0.5189,0.523,0.5248,0.5232,0.5254,0.5238,0.5247,0.5245,0.5246,0.5225,0.5224,0.5224,0.5223,0,0.4616,0.4641,0.4676,0.472,0.4749,0.4786,0.4826,0.4839,0.4906,0.493,0.4969,0.4997,0.5052,0.5091,0.5139,0.5172,0.5208,0.5216,0.5216,0.52,0.518,0.519,0.5249,0.5216,0.5217,0.5217,0.5218,0.5218,0.4571,0.4586,0.4638,0.4675,0.4711,0.4747,0.4767,0.481,0.4844,0.4893,0.4925,0.4962,0.5011,0.508,0.511,0.514,0.5155,0.5156,0.5156,0.5155,0.515,0.5176,0.5149,0.5149,0.515,0.515,0.515,0,0.4524,0.456,0.4594,0.4648,0.4677,0.471,0.4756,0.4778,0.481,0.4853,0.4888,0.4932,0.4971,0.5025,0.5068,0.5082,0.5099,0.5091,0.509,0.5097,0.5134,0.5129,0.5076,0.5076,0.5076,0.5076,0.5076,0.5076,0.4503,0.453,0.4562,0.4607,0.4644,0.468,0.4704,0.4737,0.4772,0.482,0.4853,0.4888,0.4935,0.4983,0.502,0.5035,0.5048,0.5034,0.5054,0.5087,0.5094,0.51,0.5096,0.5037,0.5037,0.5014,0.5014,0.5014]},{"header":{"parameterUnit":"m.s-1","parameterCategory":1,"la1":30.2991,"la2":30.254,"lo1":-89.0895,"lo2":-89.0444,"dy":0.0017,"dx":0.0017,"nx":28,"ny":28,"refTime":"2024-09-01T03:00:00:Z","depth":0,"parameterNumber":3,"parameterNumberName":"V-component_of_WINDS"},"data":[0,0,0,0,0,0,0,0,0,0,0,0,0,0,0,0,0,0,0,0,0,0,0,0,0,0,0,0,0,0,0,0,0,0,0,0,0,0,0,0,0,0,0,0,0,0,0,0,0,0,0,0,0,0,0,0,0,0,0.8326,0.8325,0,0.8307,0.8307,0.8307,0.8286,0.8286,0.8286,0.8285,0.8265,0.8265,0.8265,0,0,0,0,0,0,0,0,0,0,0,0,0,0.8342,0.8341,0.8326,0.8325,0.8325,0.8307,0.8307,0.8307,0.8286,0.8286,0.8286,0.8285,0.8266,0.8265,0.8265,0,0,0,0,0,0,0,0,0,0,0,0,0,0.833,0.8341,0.8326,0.8313,0.8311,0.8307,0.8307,0.8307,0.8286,0.8286,0.8285,0.8285,0.8266,0.8265,0.8265,0.8272,0,0,0.8264,0.8264,0,0,0,0,0,0,0,0,0.8331,0.833,0.8315,0.8314,0.8312,0.8299,0.8305,0.8295,0.8286,0.8296,0.8285,0.8285,0.8277,0.8275,0.8273,0.8271,0.827,0.8264,0.8264,0.8263,0.8263,0,0,0,0,0,0,0,0.8332,0.833,0.8318,0.8315,0.8313,0.8308,0.8305,0.8303,0.8289,0.8295,0.8293,0.8292,0.8276,0.8273,0.8272,0.827,0.8264,0.8263,0.8263,0.8263,0.8271,0.8272,0,0,0,0,0,0,0.8335,0.8331,0.8319,0.8318,0.8321,0.8308,0.8305,0.8303,0.8289,0.8286,0.8292,0.8291,0.8274,0.8273,0.8272,0.8278,0.8263,0.8263,0.8263,0.8271,0.8271,0.8272,0,0,0,0,0,0,0.8335,0.8334,0.832,0.8324,0.8322,0.8308,0.8306,0.8303,0.8301,0.8287,0.8284,0.8292,0.8274,0.8272,0.8272,0.8277,0.8263,0.8263,0.827,0.8271,0.8272,0.8292,0,0,0,0,0,0,0.8336,0.8334,0.8337,0.8324,0.8322,0.8321,0.8306,0.8303,0.83,0.8298,0.8286,0.8284,0.8273,0.8272,0.8271,0.8276,0.8262,0.827,0.8271,0.8271,0.829,0.8293,0.8295,0,0,0,0,0,0.8336,0.8343,0.8337,0.8336,0.8325,0.8321,0.8319,0.8308,0.8301,0.8303,0.8294,0.8284,0.8277,0.8273,0.8271,0.8276,0.8269,0.827,0.8271,0.8289,0.8292,0.8295,0,0,0,0,0,0,0.8356,0.8341,0.8334,0.8337,0.8331,0.8318,0.832,0.8311,0.8306,0.8305,0.829,0.8287,0.8289,0.8282,0.8278,0.8282,0.8272,0.8272,0.8286,0.8289,0.8291,0.8292,0.8262,0,0,0,0,0,0.8361,0.8359,0.8346,0.835,0.8347,0.8334,0.8332,0.8324,0.8316,0.8313,0.8304,0.8297,0.8293,0.829,0.8286,0.8289,0.8286,0.8292,0.8295,0.8296,0.8297,0.8298,0.83,0.8275,0.8275,0.8275,0,0,0.8371,0.8362,0.8362,0.8354,0.8348,0.8346,0.8332,0.8331,0.8329,0.8313,0.8312,0.8305,0.8296,0.8297,0.8298,0.8292,0.8303,0.8298,0.8299,0.8299,0.8299,0.8302,0.8304,0.8276,0.8276,0.8276,0,0,0.8387,0.8381,0.8384,0.8378,0.8369,0.836,0.8361,0.8349,0.8344,0.8343,0.833,0.8328,0.8321,0.8315,0.8311,0.8326,0.8316,0.8324,0.8336,0.8337,0.8339,0.8341,0.8346,0.8348,0.8325,0.8325,0.8325,0,0.8401,0.8398,0.8386,0.8385,0.8382,0.8367,0.8369,0.8364,0.8354,0.8352,0.8346,0.8337,0.833,0.8329,0.8333,0.833,0.833,0.8326,0.834,0.8342,0.8343,0.8347,0.8349,0.8326,0.8326,0.8326,0.8326,0,0.8414,0.8413,0.8416,0.8407,0.8403,0.8404,0.8392,0.839,0.8382,0.8374,0.8372,0.8363,0.8356,0.8356,0.8348,0.8354,0.8351,0.8343,0.8332,0.8347,0.835,0.8352,0.8328,0.8328,0.8327,0.8327,0,0,0.8443,0.8427,0.8428,0.8424,0.8413,0.8411,0.8411,0.8405,0.8403,0.8397,0.8396,0.8391,0.8383,0.8379,0.837,0.8371,0.8382,0.8362,0.8362,0.8366,0.8388,0.8394,0.8396,0.8375,0.8376,0.8376,0.8388,0,0.8458,0.8457,0.8446,0.8448,0.8446,0.8432,0.8432,0.8425,0.8417,0.8414,0.8405,0.8402,0.8392,0.8389,0.839,0.838,0.8386,0.8379,0.8374,0.8374,0.8376,0.8398,0.8404,0.8416,0.839,0.839,0.839,0,0.8475,0.8469,0.8472,0.846,0.8459,0.8459,0.8452,0.8449,0.8441,0.8435,0.843,0.842,0.8419,0.8409,0.8406,0.8402,0.8399,0.8394,0.8394,0.8393,0.8383,0.8397,0.842,0.8421,0.8392,0.8392,0.8392,0,0.8495,0.8488,0.8489,0.8485,0.8472,0.8472,0.8467,0.8458,0.8455,0.8448,0.8446,0.844,0.8436,0.8431,0.8419,0.8414,0.8418,0.8408,0.8413,0.8413,0.8414,0.8414,0.8437,0.8413,0.8413,0.8413,0.8413,0,0.8512,0.8514,0.8497,0.8498,0.8499,0.8486,0.8488,0.8481,0.8473,0.8471,0.8458,0.8457,0.8442,0.8438,0.8429,0.8428,0.8426,0.8421,0.8418,0.8422,0.8423,0.842,0.8418,0.8413,0.8413,0.8413,0.8413,0,0.8535,0.8524,0.8523,0.8511,0.8508,0.8509,0.8498,0.8498,0.8489,0.8487,0.8486,0.8473,0.8468,0.8456,0.8448,0.8441,0.8442,0.8438,0.8445,0.8444,0.8449,0.8449,0.847,0.8472,0.8448,0.8448,0.8448,0,0.8546,0.8547,0.8535,0.8533,0.8528,0.8525,0.8522,0.8509,0.8506,0.8496,0.8497,0.8491,0.8486,0.8479,0.8468,0.8461,0.8456,0.8464,0.8455,0.8459,0.8456,0.8456,0.8455,0.8466,0.8467,0.8467,0.8467,0,0.8568,0.8562,0.8558,0.8552,0.8549,0.8544,0.8537,0.8536,0.8522,0.8519,0.8514,0.851,0.8502,0.8496,0.8488,0.8482,0.8472,0.847,0.8471,0.8474,0.8478,0.8476,0.845,0.847,0.8469,0.8469,0.8469,0.8469,0.8585,0.8585,0.8576,0.8572,0.8566,0.8561,0.8559,0.8551,0.8547,0.854,0.8532,0.8528,0.8519,0.8507,0.8501,0.8497,0.8492,0.8493,0.8493,0.8494,0.8495,0.8479,0.8496,0.8495,0.8495,0.8495,0.8495,0,0.8605,0.8599,0.8595,0.8587,0.8584,0.8575,0.8568,0.8566,0.8562,0.8555,0.855,0.8544,0.8538,0.8527,0.852,0.8519,0.8514,0.8517,0.8517,0.8516,0.85,0.85,0.8521,0.8521,0.8521,0.8521,0.8521,0.8521,0.8615,0.8615,0.8609,0.8605,0.8599,0.8595,0.8591,0.8586,0.858,0.8574,0.8569,0.8562,0.8553,0.8545,0.8539,0.8536,0.8534,0.8538,0.8534,0.8519,0.8517,0.8514,0.8514,0.8538,0.8538,0.8549,0.8549,0.8549]}]]